Location: Banios
(43.0451°N, 0.2335°E)
Time: 12:38:44
(UTC+00:00)

GEOS 3 Rocket - Pass Details

Date: 25 January 2021
Orbit: 771 x 848 km, 115.0° (Epoch: 25 February)

Event Time Altitude Azimuth Distance (km) Brightness Sun altitude
Rises 05:23:42 0° 129° (SE) 3,369 7.8 -21.3°
Reaches altitude 10° 05:26:01 10° 126° (SE) 2,446 7.0 -20.9°
Maximum altitude 05:31:15 60° 48° (NE) 965 4.1 -20.0°
Enters shadow 05:35:30 16° 332° (NNW) 2,070 5.4 -19.2°
